Temperature
23 22 22 22 27 29 28 28 29 28 29 27 27 27 27 26 26 24 19 19 20 20 19 20 19 19 19 19 19 19 19 19 19 19 19 19 19 18 19 19 19 19 19 18 18 18 19 19 19
22 23 22 26 29 28 27 28 29 28 28 26 26 26 26 24 22 20 19 19 19 19 19 19 20 19 19 19 19 19 19 19 19 19 19 19 18 18 18 18 18 18 18 18 18 18 18 18 19
24 23 25 29 29 28 28 28 29 28 27 27 26 26 25 23 21 20 19 19 19 19 19 19 20 20 20 19 19 19 19 19 19 18 18 18 18 18 18 18 18 18 18 18 18 18 18 18 18
23 24 28 30 28 28 28 29 29 28 28 27 27 26 24 21 21 21 20 20 19 19 19 20 20 20 20 20 19 19 19 19 18 18 18 18 19 18 18 18 18 18 18 18 18 18 18 18 18
24 27 29 28 28 28 29 28 28 29 28 27 27 26 24 21 20 20 20 20 20 20 19 19 20 20 20 20 19 19 19 19 19 18 18 19 19 19 18 18 18 18 18 18 18 18 18 18 18
26 29 29 28 28 28 29 28 28 28 27 27 26 26 23 21 20 20 20 20 20 20 19 19 20 20 20 19 19 19 19 19 19 19 19 19 19 18 18 18 18 18 18 18 18 18 18 18 18
27 29 28 28 27 27 28 28 28 28 27 26 26 26 24 21 20 20 19 19 19 19 19 19 19 19 19 19 19 19 19 19 19 19 19 19 18 18 18 18 18 18 18 18 18 18 18 18 18
26 29 28 28 27 26 27 27 26 26 25 24 24 26 24 21 20 20 19 19 19 19 19 19 19 18 18 18 19 19 19 19 19 19 19 19 18 18 18 18 18 18 18 18 18 18 18 18 18
26 29 28 27 27 25 26 26 25 25 24 23 22 22 22 20 20 20 20 19 19 19 19 19 19 19 18 18 18 18 19 19 19 18 19 19 18 17 18 17 18 18 18 18 18 18 18 18 18
28 28 27 26 26 25 23 23 23 24 22 21 21 20 20 20 20 20 19 19 19 19 19 19 19 19 18 18 18 18 18 18 18 18 18 18 18 17 17 17 18 18 18 18 18 18 18 18 17
27 27 26 25 25 25 23 20 20 22 19 17 18 18 18 18 18 18 18 18 18 18 19 19 19 19 18 18 18 18 18 18 18 18 18 18 18 17 17 17 17 17 18 17 18 18 17 17 18
26 25 25 24 23 23 22 21 18 17 16 16 16 16 16 16 16 16 16 17 17 18 18 19 19 19 19 19 18 18 18 18 18 18 18 18 18 18 18 17 17 17 17 17 17 17 18 18 18
26 24 22 21 21 20 19 19 17 16 15 16 16 16 16 16 16 16 16 16 16 17 17 18 19 19 19 19 19 18 18 18 18 18 18 18 18 18 18 18 17 17 17 17 17 18 18 18 19
24 23 22 22 21 20 19 18 17 15 16 16 16 16 16 15 15 16 16 16 16 16 17 17 18 18 19 19 19 19 18 18 18 18 18 18 18 18 18 18 18 18 17 17 17 18 18 18 18
24 24 23 22 22 21 21 18 16 15 16 16 16 16 16 16 16 15 15 15 16 16 16 17 17 18 18 18 19 19 19 18 18 18 18 18 18 18 18 18 18 18 17 18 18 18 18 18 18
26 26 24 21 21 20 22 17 15 15 16 16 16 17 16 16 16 15 15 15 15 16 16 16 17 17 18 18 18 19 19 19 18 18 18 18 18 18 18 18 18 17 18 17 17 18 17 18 18
26 25 24 22 20 21 20 16 15 15 16 16 16 16 16 16 16 15 15 15 15 15 16 16 17 17 17 18 18 18 18 18 18 18 18 18 18 18 18 18 18 18 17 17 17 17 18 18 18
25 25 24 22 20 20 19 16 16 16 16 16 16 16 16 16 15 15 14 14 14 14 15 15 16 17 17 17 17 18 18 18 18 18 18 18 18 18 18 18 18 18 17 17 17 17 17 17 17
24 24 23 20 19 19 18 17 17 16 16 16 16 16 15 15 15 14 14 14 14 14 14 14 15 15 16 17 17 17 17 17 18 18 18 18 18 18 18 18 18 18 18 18 17 17 17 17 17
24 24 22 19 19 19 18 17 17 16 16 16 15 15 15 14 14 14 13 13 13 13 13 14 14 14 15 15 16 16 17 17 17 17 17 18 18 18 18 18 18 18 18 18 17 17 17 17 17
22 22 21 20 18 18 18 17 18 17 17 16 15 15 14 14 13 13 13 13 12 12 12 13 13 13 14 14 15 15 16 16 16 16 17 17 17 18 18 18 18 18 18 18 17 17 17 17 17
21 19 20 19 20 19 19 20 18 17 17 16 15 14 14 13 13 13 12 12 12 12 12 12 12 13 13 13 14 14 14 15 15 16 16 17 17 17 17 17 17 17 17 18 17 17 17 17 17
20 18 19 20 20 20 19 20 19 17 16 16 15 14 14 13 13 12 12 11 11 11 12 12 12 13 13 13 13 14 14 14 15 15 16 16 16 16 17 17 17 17 17 17 17 17 17 17 17
18 19 19 20 20 20 18 19 17 17 15 15 15 14 14 13 13 12 12 11 11 11 11 12 12 12 13 13 13 13 14 14 14 15 15 15 15 16 16 16 16 17 17 17 17 17 17 16 16
19 20 21 20 20 20 18 18 16 16 16 15 15 14 14 13 13 12 12 11 11 11 11 12 12 12 12 12 13 13 13 13 14 14 14 15 15 15 15 15 16 16 16 16 16 16 16 16 16
19 20 21 21 21 19 17 18 17 16 15 15 15 15 14 14 13 12 12 11 11 11 11 11 12 12 12 12 12 13 13 13 13 13 14 14 14 14 15 15 15 15 15 16 16 16 16 15 16
19 19 19 20 20 20 19 18 17 17 16 15 15 15 14 14 13 13 12 11 11 11 11 11 11 12 12 12 12 12 12 13 13 13 13 13 14 14 14 14 14 15 15 15 15 15 15 15 15
18 18 19 20 20 20 18 18 17 16 15 16 15 15 14 14 13 13 12 12 11 11 11 11 11 11 11 12 12 12 12 12 13 13 13 13 13 13 14 14 14 14 14 14 14 14 14 14 14
17 18 18 19 18 19 18 17 16 15 15 15 15 14 14 14 14 13 13 12 12 11 11 11 11 11 11 11 12 12 12 12 13 13 13 13 13 13 13 13 13 13 13 13 14 13 14 14 14
17 17 18 19 18 18 18 17 16 15 15 14 14 14 14 14 14 13 13 13 12 12 11 11 11 11 11 11 11 12 12 12 12 12 13 13 13 13 13 13 13 13 13 13 13 13 13 13 13
Wind_Speed
7 8 5 3 2 8 13 9 7 6 5 6 5 3 3 4 3 3 5 11 14 16 17 18 16 15 14 13 12 11 10 10 9 9 8 7 6 5 4 4 3 3 3 3 3 4 5 5 5
5 5 4 2 6 12 12 8 9 9 6 4 5 4 5 6 6 5 8 11 15 15 15 16 17 15 14 13 12 11 10 9 9 8 8 7 6 5 5 4 4 3 3 3 3 3 4 5 4
6 4 2 4 9 11 10 7 8 8 6 4 5 6 5 6 5 5 9 13 14 13 13 15 16 15 14 13 12 11 10 9 9 8 8 7 6 6 5 5 4 3 3 3 3 3 4 4 4
3 3 1 7 12 9 6 6 5 6 8 9 6 7 7 7 4 8 13 14 14 12 12 14 14 14 13 12 12 11 10 9 9 9 8 7 7 6 5 5 4 4 4 3 3 3 3 4 3
2 1 6 9 9 8 7 6 5 8 8 10 9 9 8 8 9 12 13 13 12 11 11 13 13 13 12 12 11 11 10 10 9 9 8 8 7 6 5 5 5 4 4 4 4 4 3 3 3
1 1 6 8 9 7 8 7 7 10 10 10 9 9 8 7 9 10 10 9 9 9 9 11 12 10 10 10 10 11 11 10 10 10 9 8 7 7 6 5 5 5 4 4 4 4 4 4 3
0 3 5 8 8 8 7 7 10 10 12 12 9 8 7 8 8 8 7 6 6 7 7 7 10 12 11 9 9 10 10 11 11 11 10 9 8 7 7 6 6 5 5 4 5 5 5 5 4
1 3 6 5 6 7 6 8 9 11 11 11 11 8 7 8 7 6 6 5 4 5 5 6 6 7 9 11 12 11 11 11 11 12 11 10 9 9 8 9 8 6 5 5 4 5 6 6 5
2 3 4 4 5 6 7 9 9 10 14 16 15 13 9 9 7 5 4 3 1 2 4 5 6 6 7 8 9 11 12 12 12 12 12 12 11 11 11 8 8 6 5 5 5 5 6 6 6
2 2 6 6 7 9 14 12 8 8 15 15 16 15 12 9 8 8 7 6 4 3 4 5 7 8 9 9 9 10 11 11 12 11 12 12 10 7 6 9 8 7 6 6 5 5 7 9 8
5 6 8 9 10 10 11 15 16 8 12 12 13 13 13 14 13 12 11 11 10 9 7 7 7 8 9 8 9 8 8 8 10 11 11 11 9 8 8 8 10 11 10 10 9 9 8 7 5
8 12 9 7 8 9 9 8 13 19 10 11 13 14 15 16 15 14 13 12 11 11 11 11 10 8 9 10 9 9 9 8 9 10 12 10 7 8 8 7 8 7 8 7 7 7 7 7 7
11 10 15 18 21 19 19 17 15 15 12 11 12 15 16 15 14 13 12 12 12 12 12 12 11 10 9 8 8 9 9 10 11 10 11 12 9 8 8 8 8 8 8 8 7 8 7 7 7
11 14 13 11 12 11 17 15 9 12 10 11 13 14 14 14 14 13 14 13 13 12 12 11 11 9 9 7 7 8 9 9 10 10 12 12 11 10 8 9 8 8 8 8 8 9 7 7 6
14 14 12 8 7 6 6 12 10 10 9 11 12 13 13 13 13 13 13 12 12 12 12 11 11 10 9 8 7 7 8 10 9 9 11 12 13 12 10 9 9 9 10 10 9 9 8 7 6
6 6 4 7 5 3 1 6 9 9 9 11 12 12 12 12 13 13 13 12 12 12 12 11 10 10 10 9 7 6 7 8 9 10 10 12 13 14 11 9 10 10 9 8 8 8 8 8 8
5 4 3 5 8 4 6 7 7 9 10 12 12 13 13 14 15 15 15 14 13 12 12 12 11 11 10 10 8 7 7 7 9 10 10 12 13 14 12 9 10 11 9 8 8 9 8 8 7
2 2 2 4 7 8 10 9 7 9 11 12 13 14 14 15 16 16 16 14 13 12 12 11 11 10 10 8 7 6 6 6 7 9 11 14 13 13 12 9 11 10 8 8 8 9 8 7 7
2 3 1 5 4 5 9 9 7 9 12 14 14 15 16 16 17 16 16 15 14 13 13 12 11 10 9 7 7 6 6 6 6 7 12 14 15 14 12 9 10 9 9 10 10 8 9 7 7
3 4 3 6 5 4 8 8 6 8 12 13 15 16 17 18 19 18 17 16 15 15 14 13 12 11 9 7 7 6 7 6 7 7 9 13 14 15 12 12 10 10 9 11 11 9 6 6 6
1 2 2 5 6 6 5 5 5 6 9 13 14 15 16 17 18 19 18 17 16 16 15 12 12 11 10 9 7 7 6 6 5 6 6 9 11 13 14 13 12 11 10 10 11 11 10 8 7
2 3 1 6 7 3 4 3 5 6 10 14 16 16 16 17 17 17 18 18 18 16 15 13 12 11 10 9 7 8 6 6 6 6 6 7 8 10 12 12 12 11 10 11 11 11 10 10 8
2 1 3 5 5 4 1 4 4 6 12 15 16 16 16 16 16 17 17 17 17 16 14 13 12 10 9 8 7 7 6 6 5 6 5 4 4 5 7 9 10 11 10 12 11 11 12 10 9
0 4 5 5 6 4 1 3 3 7 11 14 14 15 15 16 16 16 16 17 17 16 14 13 12 10 9 8 7 6 6 6 6 5 3 1 0 1 2 4 7 8 9 10 11 11 12 11 11
3 5 4 5 5 1 2 1 3 7 8 10 12 13 14 15 15 16 17 17 18 17 15 13 12 11 10 9 8 7 7 6 6 6 4 3 3 2 2 0 2 4 6 7 8 9 11 12 13
2 4 4 4 1 2 2 0 4 5 6 8 10 11 13 14 15 15 15 15 16 16 16 14 13 12 11 10 9 9 8 6 6 7 6 5 4 4 3 2 1 0 2 4 5 6 8 9 11
1 1 3 3 1 1 2 2 4 3 7 9 10 11 12 13 14 14 14 14 14 15 15 14 13 13 12 11 10 10 10 9 8 7 6 5 6 5 6 5 5 4 3 1 2 3 5 6 8
4 2 3 3 2 1 2 1 1 5 7 8 9 11 12 12 13 13 12 12 12 12 13 13 14 13 12 12 11 9 10 10 9 8 9 8 7 7 6 6 6 5 5 4 2 1 1 2 4
1 0 1 0 2 2 1 2 3 3 4 6 8 9 10 11 12 12 11 11 11 11 12 12 12 13 12 12 11 11 11 10 10 10 10 9 8 8 8 7 6 6 6 5 4 3 2 1 0
3 2 2 2 1 1 1 2 3 1 2 3 5 7 8 9 10 10 10 10 11 11 11 11 11 11 11 10 10 10 10 10 10 10 10 10 9 9 8 8 7 7 6 5 4 4 3 3 3
Wind_Direction
201 188 197 220 166 93 82 76 72 67 55 57 58 51 42 35 358 50 107 151 143 146 148 152 152 150 148 146 143 142 142 143 144 145 145 147 150 147 138 128 117 108 111 128 139 138 137 137 132
172 169 220 235 102 92 81 71 67 57 69 77 61 53 64 60 41 83 131 147 148 147 150 154 152 154 153 151 148 147 147 148 149 149 150 151 152 150 142 131 117 105 99 101 113 123 131 134 129
170 211 266 92 79 77 80 68 71 73 56 38 53 49 47 46 65 109 131 148 149 148 150 147 155 157 157 157 154 153 152 152 154 153 152 152 150 146 141 132 123 113 100 92 94 107 127 129 124
192 227 210 95 84 67 63 72 74 74 59 45 53 66 67 45 52 112 137 150 151 152 153 150 161 161 163 163 162 162 160 160 161 159 157 156 152 147 145 141 133 122 108 95 89 98 115 120 121
244 245 109 95 85 68 59 56 57 56 54 47 52 72 72 56 81 120 142 153 156 157 157 156 165 168 170 170 171 171 169 169 169 171 169 166 162 158 156 151 138 127 116 101 89 95 109 119 128
264 144 106 92 88 77 69 67 67 64 63 49 48 67 73 81 98 122 138 155 161 161 165 160 167 177 180 182 184 181 180 178 179 182 181 177 173 166 161 154 145 134 122 110 100 100 109 116 128
72 108 107 105 99 80 54 57 53 58 55 39 28 66 93 95 95 116 128 146 163 170 181 182 179 185 192 198 200 196 193 191 190 190 188 186 181 179 176 169 158 147 137 125 114 110 114 119 124
347 137 131 113 101 73 53 72 53 46 54 39 27 48 83 103 108 108 114 135 162 186 203 210 208 207 206 204 204 212 210 205 202 196 196 193 192 194 192 193 171 163 157 147 134 125 120 121 124
276 176 135 109 100 74 53 72 53 59 63 53 45 43 68 98 104 98 95 100 138 232 241 237 240 235 239 239 213 216 221 217 212 207 200 203 210 203 198 194 162 178 175 167 159 151 140 145 142
354 127 89 72 87 92 64 56 32 62 48 34 36 46 59 69 62 51 38 23 7 332 292 271 259 250 245 246 243 234 231 223 223 223 209 214 221 218 223 147 183 197 193 187 180 172 181 209 182
55 80 92 75 86 96 87 62 39 63 43 21 24 37 47 51 49 42 34 23 10 358 352 325 297 273 259 248 250 248 244 237 236 237 230 228 225 218 222 204 191 201 202 206 177 202 208 208 196
88 62 71 66 76 79 77 81 59 51 45 35 43 44 47 47 43 37 31 25 17 12 2 349 333 309 284 267 257 253 252 248 243 238 237 234 235 234 224 220 217 207 205 213 217 221 204 215 200
100 91 80 83 81 83 87 84 76 49 41 44 50 49 45 42 39 35 30 25 18 12 2 355 346 336 319 298 277 265 257 254 252 248 247 235 232 237 234 226 218 222 217 206 217 221 208 217 216
107 107 99 88 89 85 83 74 61 33 32 44 45 44 41 37 31 26 20 16 11 6 359 353 349 349 333 310 288 278 273 266 264 256 250 247 237 237 239 237 224 224 222 221 219 217 208 212 215
124 115 96 66 91 119 97 60 39 21 29 40 37 36 32 28 24 19 12 5 1 357 354 352 343 344 337 324 302 289 281 278 271 265 260 253 246 243 238 241 233 224 219 220 222 217 215 214 211
168 173 125 55 38 37 207 74 37 22 29 34 26 23 18 17 14 10 3 356 351 347 345 345 341 339 335 327 309 284 273 269 267 266 265 260 254 247 242 240 238 232 224 220 215 220 215 214 217
203 221 142 93 34 52 89 94 50 31 31 29 19 12 7 3 3 360 354 349 344 339 336 336 337 334 333 326 313 297 275 258 257 257 261 261 258 254 244 240 240 232 225 222 219 215 219 224 225
256 247 146 93 58 82 97 100 68 40 31 24 15 7 3 359 356 352 347 343 339 334 329 327 328 327 328 323 316 309 289 268 254 248 246 252 255 254 248 241 238 233 223 220 218 215 217 233 233
315 274 153 95 101 88 101 100 74 42 30 20 12 6 1 356 353 353 348 343 340 336 330 323 321 323 324 321 318 313 304 293 272 257 247 244 243 244 240 238 236 228 221 220 216 213 213 222 231
275 253 154 115 111 119 120 103 80 48 32 21 11 5 1 354 352 353 351 349 343 338 331 324 321 320 318 312 305 290 288 283 276 264 255 248 242 235 232 229 230 227 223 222 216 206 209 211 215
31 292 187 152 130 141 164 149 76 51 31 25 18 10 4 359 353 351 350 348 344 341 335 325 321 315 312 309 302 298 293 282 274 269 264 258 249 237 229 226 225 225 222 223 217 207 207 206 210
176 54 171 177 195 166 239 227 85 25 24 19 14 9 5 360 355 352 350 348 347 344 338 329 321 318 317 310 302 303 298 298 297 292 277 265 252 241 231 226 225 223 222 222 218 212 215 210 207
24 348 222 205 212 192 213 269 88 25 12 9 7 5 3 358 355 354 353 351 349 347 344 337 330 326 325 321 313 305 302 301 301 295 282 270 255 242 234 226 222 222 222 223 219 212 214 212 210
227 158 150 182 213 219 7 302 49 22 1 357 0 2 2 360 358 358 358 357 353 351 350 348 344 341 341 339 337 334 330 331 333 333 333 334 332 243 233 224 222 222 221 221 219 215 213 214 216
219 221 209 202 213 153 68 294 55 25 7 360 357 360 2 3 4 3 3 1 359 357 357 356 357 353 355 354 353 355 358 360 5 2 10 29 39 33 24 225 221 224 230 230 225 220 219 219 221
8 285 296 300 307 127 176 35 79 37 15 8 8 6 8 13 11 9 8 5 3 1 2 5 5 2 4 4 4 9 12 12 15 19 25 34 36 35 32 49 69 132 233 237 234 233 231 231 231
299 31 337 312 345 215 138 123 127 49 24 18 14 14 14 13 13 12 10 9 6 4 6 8 7 10 11 10 14 16 16 19 21 25 28 32 37 38 41 46 50 51 42 1 265 244 241 241 239
25 348 262 272 279 267 155 156 47 18 14 13 14 13 10 7 9 10 10 9 7 5 7 13 16 16 15 17 22 22 18 18 20 26 31 31 34 39 44 50 55 52 47 42 40 18 303 252 243
23 106 34 56 322 301 281 94 61 11 0 357 4 6 6 6 5 8 9 8 9 11 12 16 16 16 17 17 19 24 25 25 28 29 30 30 32 35 39 39 45 48 47 46 51 54 49 66 93
29 17 301 303 91 334 298 118 107 345 328 339 352 2 5 4 6 9 11 11 14 14 15 18 18 19 17 17 22 28 29 30 33 33 31 34 36 36 37 38 39 40 37 36 40 45 49 59 70
Height
1526 1525 1526 1528 1526 1525 1533 1531 1526 1527 1526 1530 1531 1530 1530 1532 1535 1542 1544 1544 1547 1550 1551 1553 1555 1557 1558 1560 1561 1562 1563 1564 1564 1564 1565 1565 1566 1566 1566 1566 1566 1566 1566 1567 1567 1567 1567 1568 1568
1527 1526 1529 1528 1524 1535 1538 1529 1528 1529 1531 1533 1533 1533 1533 1537 1541 1543 1543 1545 1549 1552 1554 1555 1556 1558 1560 1561 1562 1563 1564 1564 1565 1565 1565 1566 1566 1567 1567 1567 1567 1567 1567 1567 1567 1568 1568 1568 1569
1527 1527 1531 1525 1528 1535 1537 1531 1530 1533 1534 1534 1535 1536 1537 1541 1544 1545 1545 1547 1551 1554 1556 1556 1558 1559 1561 1562 1563 1564 1564 1565 1565 1565 1566 1566 1567 1567 1567 1567 1567 1567 1567 1567 1567 1568 1568 1569 1569
1529 1531 1530 1527 1535 1534 1533 1532 1533 1534 1535 1536 1536 1539 1542 1546 1547 1547 1548 1551 1554 1556 1557 1558 1559 1560 1562 1563 1563 1564 1565 1565 1565 1566 1566 1567 1567 1567 1567 1567 1567 1567 1568 1568 1568 1568 1568 1569 1570
1531 1531 1528 1533 1536 1534 1534 1535 1535 1535 1537 1539 1539 1541 1546 1549 1549 1550 1551 1554 1557 1558 1560 1560 1560 1561 1562 1563 1564 1564 1565 1565 1565 1566 1566 1567 1567 1567 1567 1567 1567 1567 1567 1568 1568 1568 1568 1569 1570
1533 1529 1533 1539 1538 1536 1536 1538 1537 1538 1540 1542 1542 1544 1550 1553 1553 1554 1555 1557 1559 1560 1561 1562 1561 1562 1563 1564 1564 1565 1565 1565 1565 1566 1566 1566 1567 1567 1567 1567 1567 1567 1567 1568 1568 1568 1568 1569 1570
1534 1530 1536 1538 1540 1540 1540 1540 1540 1541 1543 1546 1547 1547 1552 1555 1556 1557 1558 1559 1561 1562 1563 1563 1563 1562 1563 1563 1564 1564 1564 1565 1565 1565 1566 1566 1567 1567 1567 1567 1567 1567 1567 1567 1567 1568 1568 1569 1570
1533 1532 1536 1538 1542 1544 1544 1544 1546 1546 1549 1552 1551 1550 1554 1558 1558 1559 1560 1560 1562 1563 1563 1564 1565 1565 1564 1564 1563 1564 1564 1564 1564 1565 1565 1566 1566 1566 1566 1566 1566 1566 1566 1566 1567 1567 1568 1568 1569
1534 1533 1538 1541 1543 1547 1547 1547 1551 1553 1554 1555 1557 1557 1558 1560 1560 1561 1562 1562 1562 1563 1563 1564 1564 1564 1563 1564 1563 1562 1562 1563 1563 1563 1563 1564 1565 1566 1566 1566 1565 1565 1565 1566 1566 1567 1567 1568 1569
1534 1535 1542 1544 1544 1549 1552 1553 1555 1555 1558 1560 1561 1561 1562 1562 1562 1562 1562 1562 1563 1563 1563 1563 1563 1563 1562 1562 1562 1560 1561 1561 1561 1562 1562 1562 1564 1565 1565 1564 1564 1564 1564 1565 1565 1566 1567 1568 1570
1537 1541 1544 1547 1548 1550 1554 1559 1561 1559 1565 1569 1567 1566 1564 1563 1562 1562 1562 1561 1561 1561 1561 1561 1561 1561 1561 1560 1559 1559 1559 1558 1559 1559 1560 1560 1561 1562 1563 1564 1563 1563 1563 1565 1564 1565 1568 1569 1570
1543 1548 1548 1551 1552 1553 1555 1561 1567 1569 1574 1574 1571 1569 1566 1564 1563 1562 1562 1560 1559 1558 1557 1557 1557 1557 1558 1557 1557 1556 1556 1556 1556 1556 1557 1557 1558 1559 1561 1562 1563 1563 1563 1564 1565 1566 1567 1568 1569
1545 1552 1555 1557 1557 1560 1562 1566 1571 1576 1577 1575 1573 1570 1568 1566 1565 1564 1563 1561 1559 1557 1556 1554 1554 1553 1553 1553 1553 1553 1553 1554 1554 1553 1554 1554 1555 1556 1558 1559 1560 1561 1562 1562 1562 1564 1565 1566 1568
1549 1553 1557 1560 1561 1564 1566 1570 1574 1580 1579 1577 1574 1572 1570 1569 1567 1565 1563 1561 1559 1557 1554 1552 1551 1550 1549 1549 1549 1549 1550 1550 1551 1551 1551 1552 1552 1553 1554 1556 1557 1558 1559 1560 1561 1562 1563 1564 1566
1551 1553 1558 1562 1562 1565 1565 1574 1582 1582 1580 1578 1576 1574 1572 1570 1568 1566 1563 1561 1559 1556 1553 1551 1549 1547 1546 1545 1545 1545 1545 1546 1547 1547 1548 1549 1549 1549 1551 1552 1554 1556 1556 1558 1559 1561 1562 1563 1564
1549 1549 1557 1565 1565 1566 1566 1581 1586 1584 1581 1579 1577 1575 1573 1571 1569 1567 1564 1561 1558 1555 1552 1549 1547 1545 1543 1542 1541 1540 1540 1541 1542 1543 1544 1545 1545 1546 1547 1548 1550 1552 1554 1555 1556 1557 1559 1561 1562
1547 1551 1557 1565 1568 1567 1569 1583 1586 1585 1582 1579 1578 1575 1573 1571 1568 1565 1562 1559 1556 1553 1550 1548 1545 1542 1540 1538 1537 1536 1536 1536 1537 1538 1539 1540 1541 1542 1543 1544 1546 1548 1549 1551 1553 1554 1556 1559 1560
1553 1552 1558 1565 1571 1570 1574 1583 1586 1585 1583 1581 1578 1576 1573 1570 1567 1564 1560 1557 1553 1550 1547 1545 1542 1540 1538 1536 1534 1532 1532 1532 1532 1532 1533 1535 1536 1538 1539 1540 1541 1543 1545 1546 1549 1551 1552 1555 1557
1555 1555 1560 1570 1574 1575 1578 1583 1585 1585 1583 1581 1578 1576 1573 1570 1567 1563 1559 1555 1551 1547 1544 1542 1539 1536 1534 1532 1530 1528 1528 1527 1527 1527 1527 1529 1531 1532 1534 1536 1537 1539 1540 1542 1544 1546 1548 1550 1553
1557 1558 1564 1573 1575 1576 1580 1583 1584 1585 1584 1583 1580 1577 1573 1569 1565 1561 1557 1553 1549 1545 1541 1538 1536 1533 1530 1528 1526 1524 1523 1522 1522 1522 1522 1523 1524 1525 1527 1530 1531 1533 1535 1537 1539 1541 1543 1546 1548
1562 1561 1564 1571 1577 1576 1578 1582 1582 1583 1583 1583 1581 1578 1575 1571 1566 1561 1556 1551 1547 1542 1538 1534 1531 1529 1526 1524 1522 1520 1519 1518 1517 1517 1516 1517 1517 1519 1521 1523 1525 1528 1530 1532 1534 1536 1538 1541 1543
1566 1570 1569 1571 1571 1572 1577 1573 1580 1581 1581 1581 1580 1578 1574 1571 1566 1561 1556 1550 1545 1540 1535 1531 1528 1525 1523 1520 1519 1517 1515 1514 1513 1512 1512 1511 1512 1513 1514 1517 1519 1522 1524 1526 1528 1530 1533 1535 1537
1569 1572 1570 1569 1568 1570 1573 1570 1576 1579 1581 1581 1580 1578 1575 1571 1566 1561 1556 1550 1544 1538 1533 1528 1525 1522 1519 1517 1515 1514 1512 1511 1509 1508 1507 1507 1507 1508 1509 1511 1514 1516 1518 1520 1523 1524 1527 1529 1532
1573 1572 1570 1568 1566 1571 1576 1574 1580 1582 1585 1583 1581 1578 1575 1571 1566 1562 1556 1550 1544 1537 1532 1527 1524 1521 1518 1515 1513 1511 1510 1508 1507 1506 1505 1504 1504 1505 1506 1507 1509 1511 1513 1515 1517 1519 1521 1523 1525
1570 1568 1567 1567 1567 1570 1578 1577 1585 1585 1586 1585 1582 1579 1575 1571 1567 1562 1556 1550 1544 1538 1532 1528 1524 1520 1517 1514 1512 1510 1509 1507 1506 1504 1503 1503 1503 1503 1503 1504 1506 1507 1509 1511 1513 1514 1516 1518 1520
1572 1567 1567 1565 1562 1571 1578 1577 1583 1586 1586 1584 1582 1579 1576 1572 1568 1563 1558 1552 1546 1540 1534 1530 1526 1522 1518 1515 1513 1510 1509 1507 1506 1504 1503 1503 1503 1502 1503 1503 1504 1504 1505 1507 1508 1510 1511 1513 1514
1570 1569 1570 1566 1567 1568 1571 1576 1581 1584 1584 1583 1581 1579 1576 1573 1569 1565 1560 1555 1549 1543 1537 1532 1528 1524 1520 1517 1514 1512 1510 1508 1507 1506 1505 1504 1503 1503 1502 1502 1502 1503 1503 1504 1505 1506 1507 1508 1509
1577 1574 1569 1567 1567 1567 1574 1576 1579 1582 1583 1582 1581 1579 1577 1574 1570 1566 1562 1557 1552 1546 1541 1536 1532 1527 1524 1520 1517 1515 1512 1511 1509 1508 1507 1506 1505 1504 1504 1503 1503 1502 1502 1502 1502 1503 1503 1504 1504
1578 1576 1573 1570 1571 1572 1576 1581 1581 1584 1584 1583 1582 1580 1578 1575 1571 1568 1564 1559 1555 1550 1545 1541 1536 1532 1528 1524 1522 1519 1516 1514 1512 1511 1509 1508 1507 1506 1506 1505 1504 1504 1503 1502 1502 1501 1501 1501 1501
1580 1579 1575 1571 1573 1575 1575 1584 1582 1584 1584 1583 1582 1580 1578 1575 1572 1569 1565 1561 1557 1553 1548 1544 1540 1536 1532 1529 1526 1523 1520 1518 1516 1514 1512 1511 1510 1509 1508 1506 1506 1505 1504 1503 1503 1502 1501 1500 1499